K8MUD Weather Reports


Display with metric or nautical units.
time (UTC)temp
F
wind
direction
speed
MPH
gust
MPH
rain 1hr
in
rain 24hr
in
rain mn
in
humidity
%
barometer
mb
20260904110003 70 168 1.0 4.0 0.00 1.02 0.00 97 1014.9
20260904105836 70 166 2.0 6.0 0.00 1.02 0.00 97 1014.9
20260904105502 70 159 2.0 6.0 0.00 1.02 0.00 97 1014.8
20260904105336 70 153 2.0 6.0 0.00 1.02 0.00 97 1014.8
20260904105024 69 148 2.0 6.0 0.00 1.02 0.00 97 1014.9
20260904104836 69 138 1.0 3.0 0.00 1.02 0.00 97 1014.9
20260904104503 69 136 1.0 3.0 0.00 1.02 0.00 97 1014.9
20260904104335 69 127 1.0 3.0 0.00 1.02 0.00 97 1014.8
20260904104005 69 110 2.0 4.0 0.00 1.02 0.00 97 1014.6
20260904103835 69 100 2.0 4.0 0.00 1.02 0.00 97 1014.7
20260904103502 69 83 2.0 4.0 0.00 1.02 0.00 97 1014.6
20260904103335 69 78 2.0 4.0 0.00 1.02 0.00 97 1014.5
20260904103006 69 69 2.0 4.0 0.00 1.02 0.00 97 1014.4
20260904102835 69 61 2.0 3.0 0.00 1.02 0.00 97 1014.4
20260904102502 69 54 2.0 3.0 0.00 1.02 0.00 97 1014.2
20260904102335 69 49 2.0 3.0 0.00 1.02 0.00 96 1014.2
20260904102003 69 42 1.0 3.0 0.00 1.02 0.00 96 1014.0
20260904101835 69 38 1.0 3.0 0.00 1.02 0.00 96 1014.0
20260904101502 69 38 1.0 2.0 0.00 1.02 0.00 97 1014.1
20260904101335 69 38 1.0 2.0 0.00 1.02 0.00 97 1014.2
20260904101002 69 38 1.0 2.0 0.00 1.02 0.00 97 1014.2
20260904100835 69 38 1.0 3.0 0.00 1.02 0.00 97 1014.2
20260904100503 69 38 1.0 3.0 0.00 1.02 0.00 97 1014.0
20260904100335 69 38 1.0 3.0 0.00 1.02 0.00 97 1013.9
20260904100002 69 35 1.0 3.0 0.00 1.02 0.00 96 1013.9
20260904095835 69 34 1.0 3.0 0.00 1.02 0.00 96 1013.8
20260904095503 69 32 2.0 3.0 0.00 1.02 0.00 96 1013.7
20260904095335 69 31 2.0 3.0 0.00 1.02 0.00 96 1013.8
20260904095003 69 31 2.0 3.0 0.00 1.02 0.00 96 1013.7
20260904094835 69 31 1.0 3.0 0.00 1.02 0.00 96 1013.8
20260904094502 69 30 1.0 4.0 0.00 1.02 0.00 97 1013.9
20260904094335 69 30 1.0 4.0 0.00 1.02 0.00 97 1014.0
20260904094003 68 30 1.0 4.0 0.00 1.02 0.00 97 1014.1
20260904093835 68 30 1.0 4.0 0.00 1.02 0.00 97 1014.2
20260904093502 68 30 0.0 2.0 0.00 1.02 0.00 96 1014.3
20260904093335 68 30 0.0 2.0 0.00 1.02 0.00 96 1014.3
20260904093002 68 30 0.0 2.0 0.00 1.02 0.00 96 1014.3
20260904092835 68 30 1.0 2.0 0.00 1.02 0.00 96 1014.4
20260904092524 69 30 0.0 2.0 0.00 1.02 0.00 96 1014.6
20260904092335 69 30 1.0 2.0 0.00 1.02 0.00 96 1014.7
20260904092005 69 30 1.0 2.0 0.00 1.02 0.00 96 1014.7
20260904091835 69 30 0.0 1.0 0.00 1.02 0.00 96 1014.8
20260904091503 69 30 0.0 2.0 0.00 1.02 0.00 96 1014.7
20260904091334 69 30 0.0 2.0 0.00 1.02 0.00 96 1014.6
20260904091003 69 30 0.0 2.0 0.00 1.02 0.00 96 1014.7
20260904090834 69 30 1.0 3.0 0.00 1.02 0.00 96 1014.7
20260904090502 69 30 1.0 3.0 0.00 1.02 0.00 96 1014.7
20260904090334 69 30 1.0 3.0 0.00 1.03 0.00 97 1014.6
20260904090003 69 30 1.0 3.0 0.00 1.03 0.00 97 1014.7
20260904085834 69 30 1.0 3.0 0.00 1.03 0.00 97 1014.7
20260904085502 69 30 1.0 2.0 0.00 1.03 0.00 97 1014.8
20260904085334 68 30 0.0 2.0 0.00 1.03 0.00 97 1014.9
20260904085002 68 30 0.0 2.0 0.00 1.03 0.00 97 1014.7
20260904084834 68 30 0.0 2.0 0.00 1.03 0.00 97 1014.6
20260904084503 68 30 1.0 4.0 0.00 1.03 0.00 97 1014.6
20260904084334 68 30 0.0 4.0 0.00 1.03 0.00 97 1014.7
20260904084003 68 29 0.0 4.0 0.00 1.03 0.00 97 1014.8
20260904083834 68 29 0.0 4.0 0.00 1.03 0.00 97 1014.8
20260904083502 68 31 0.0 3.0 0.00 1.03 0.00 97 1014.9
20260904083334 68 31 0.0 3.0 0.00 1.03 0.00 96 1014.9
20260904083003 68 33 0.0 3.0 0.00 1.03 0.00 96 1015.0
20260904082834 68 34 0.0 3.0 0.00 1.03 0.00 96 1015.0
20260904082503 68 34 0.0 2.0 0.00 1.03 0.00 96 1015.0
20260904082334 68 34 0.0 2.0 0.00 1.03 0.00 96 1015.0
20260904082003 68 34 0.0 2.0 0.00 1.03 0.00 96 1015.0
20260904081834 68 34 0.0 1.0 0.00 1.03 0.00 96 1015.0
20260904081505 68 33 0.0 1.0 0.00 1.03 0.00 96 1014.8
20260904081334 68 33 0.0 2.0 0.00 1.03 0.00 96 1014.9
20260904081003 68 33 0.0 2.0 0.00 1.03 0.00 96 1014.7
20260904080834 68 37 1.0 4.0 0.00 1.03 0.00 96 1014.7
20260904080503 68 45 1.0 4.0 0.00 1.03 0.00 96 1014.7
20260904080334 68 47 1.0 4.0 0.00 1.03 0.00 96 1014.5
20260904080005 68 59 1.0 4.0 0.00 1.03 0.00 96 1014.5
20260904075834 68 74 0.0 2.0 0.00 1.03 0.00 96 1014.4
20260904075523 68 59 0.0 3.0 0.00 1.03 0.00 96 1014.5
20260904075334 68 21 0.0 3.0 0.00 1.04 0.00 96 1014.4
20260904075003 68 349 1.0 3.0 0.00 1.05 0.00 96 1014.2
20260904074833 68 336 1.0 4.0 0.00 1.06 0.00 96 1014.3
20260904074502 68 357 1.0 4.0 0.00 1.08 0.00 96 1014.4
20260904074333 68 10 1.0 4.0 0.00 1.09 0.00 96 1014.3
20260904074002 68 37 1.0 4.0 0.00 1.09 0.00 96 1014.5
20260904073833 68 83 1.0 3.0 0.00 1.10 0.00 96 1014.4
20260904073503 68 75 0.0 3.0 0.00 1.10 0.00 96 1014.3
20260904073333 68 50 1.0 3.0 0.00 1.10 0.00 96 1014.3
20260904073024 68 41 1.0 3.0 0.00 1.10 0.00 96 1014.4
20260904072833 68 5 0.0 2.0 0.00 1.10 0.00 96 1014.4
20260904072502 68 5 0.0 2.0 0.00 1.10 0.00 96 1014.3
20260904072333 68 18 1.0 5.0 0.00 1.10 0.00 96 1014.4
20260904072005 68 32 1.0 5.0 0.00 1.10 0.00 96 1014.5
20260904071833 68 35 1.0 5.0 0.00 1.11 0.00 96 1014.6
20260904071503 68 28 1.0 5.0 0.00 1.13 0.00 96 1014.6
20260904071333 69 2 1.0 4.0 0.00 1.14 0.00 96 1014.7
20260904071003 69 321 1.0 3.0 0.00 1.14 0.00 96 1014.7
20260904070833 69 307 1.0 4.0 0.00 1.15 0.00 96 1014.7
20260904070503 69 303 1.0 4.0 0.00 1.15 0.00 96 1014.7
20260904070333 69 301 0.0 4.0 0.00 1.15 0.00 96 1014.8
20260904070003 69 301 0.0 4.0 0.00 1.15 0.00 96 1014.9
20260904065833 69 0 0.0 0.0 0.00 1.15 0.00 96 1014.9
20260904065524 68 0 0.0 0.0 0.00 1.15 0.00 96 1015.0
20260904065333 69 0 0.0 0.0 0.00 1.15 0.00 96 1014.9
20260904065006 68 0 0.0 0.0 0.00 1.15 0.00 96 1014.9
20260904064833 68 0 0.0 0.0 0.00 1.15 0.00 96 1015.1
20260904064524 68 0 0.0 0.0 0.00 1.16 0.00 96 1015.1
20260904064333 68 0 0.0 0.0 0.00 1.18 0.00 96 1015.1
20260904064003 68 0 0.0 0.0 0.00 1.22 0.00 96 1015.2
20260904063833 68 0 0.0 0.0 0.00 1.24 0.00 96 1015.2
20260904063506 68 0 0.0 0.0 0.00 1.25 0.00 96 1015.2
20260904063332 68 0 0.0 0.0 0.00 1.25 0.00 96 1015.2
20260904063003 68 0 0.0 0.0 0.00 1.26 0.00 96 1015.0
20260904062832 68 0 0.0 0.0 0.00 1.26 0.00 96 1015.1
20260904062503 68 0 0.0 0.0 0.00 1.26 0.00 96 1015.0
20260904062332 68 0 0.0 0.0 0.00 1.26 0.00 96 1015.0
20260904062002 68 0 0.0 0.0 0.00 1.26 0.00 96 1015.0
20260904061832 68 0 0.0 0.0 0.00 1.26 0.00 96 1015.1
20260904061506 68 0 0.0 0.0 0.00 1.26 0.00 96 1015.1
20260904061332 68 0 0.0 0.0 0.00 1.26 0.00 96 1015.1
20260904061003 69 0 0.0 0.0 0.00 1.26 0.00 96 1015.1
20260904060832 69 0 0.0 0.0 0.00 1.26 0.00 96 1015.1
20260904060503 69 0 0.0 0.0 0.00 1.26 0.00 96 1015.2
20260904060332 69 0 0.0 0.0 0.00 1.26 0.00 96 1015.2
20260904060005 69 0 0.0 0.0 0.00 1.26 0.00 96 1015.1
20260904055832 69 0 0.0 0.0 0.00 1.26 0.00 96 1015.2
20260904055503 69 0 0.0 0.0 0.00 1.26 0.00 96 1015.2
20260904055332 69 0 0.0 0.0 0.00 1.26 0.00 96 1015.2
20260904055003 69 0 0.0 0.0 0.00 1.26 0.00 96 1015.2
20260904054832 69 0 0.0 0.0 0.00 1.26 0.00 96 1015.2
20260904054506 69 0 0.0 0.0 0.00 1.26 0.00 96 1015.2
20260904054332 69 0 0.0 0.0 0.00 1.26 0.00 96 1015.2
20260904054002 69 0 0.0 0.0 0.00 1.26 0.00 96 1015.2
20260904053834 69 0 0.0 0.0 0.00 1.26 0.00 96 1015.2
20260904053503 69 0 0.0 0.0 0.00 1.26 0.00 96 1015.3
20260904053332 69 0 0.0 0.0 0.00 1.26 0.00 96 1015.4
20260904053010 69 0 0.0 0.0 0.00 1.26 0.00 96 1015.3
20260904052832 69 0 0.0 0.0 0.00 1.26 0.00 96 1015.4
20260904052503 69 0 0.0 0.0 0.00 1.26 0.00 96 1015.5
20260904052332 69 0 0.0 0.0 0.00 1.26 0.00 96 1015.5
20260904052003 69 0 0.0 0.0 0.00 1.26 0.00 96 1015.5
20260904051832 69 0 0.0 0.0 0.00 1.26 0.00 96 1015.5
20260904051506 69 0 0.0 0.0 0.00 1.26 0.00 96 1015.5
20260904051332 69 0 0.0 0.0 0.00 1.27 0.00 96 1015.5
20260904051003 69 0 0.0 0.0 0.00 1.27 0.00 96 1015.5
20260904050831 69 0 0.0 0.0 0.00 1.27 0.00 96 1015.4
20260904050503 69 0 0.0 0.0 0.00 1.27 0.00 96 1015.5
20260904050331 69 0 0.0 0.0 0.00 1.27 0.00 96 1015.4
20260904050003 69 0 0.0 0.0 0.00 1.27 0.00 96 1015.5
20260904045831 69 0 0.0 0.0 0.00 1.27 0.00 96 1015.5
20260904045506 69 0 0.0 0.0 0.00 1.27 0.00 96 1015.5
20260904045331 69 0 0.0 0.0 0.00 1.27 0.00 96 1015.5
20260904045003 69 0 0.0 0.0 0.00 1.27 0.00 96 1015.5
20260904044831 69 0 0.0 0.0 0.00 1.27 0.00 95 1015.4
20260904044503 69 0 0.0 0.0 0.00 1.27 0.00 95 1015.4
20260904044331 69 0 0.0 0.0 0.00 1.27 0.00 95 1015.5
20260904044003 69 0 0.0 0.0 0.00 1.27 0.00 95 1015.5
20260904043831 69 0 0.0 0.0 0.00 1.27 0.00 96 1015.4
20260904043503 69 0 0.0 0.0 0.00 1.27 0.00 96 1015.4
20260904043331 69 0 0.0 0.0 0.00 1.27 0.00 96 1015.3
20260904043003 69 0 0.0 0.0 0.00 1.27 0.00 96 1015.3
20260904042831 69 0 0.0 0.0 0.00 1.27 0.00 96 1015.3
20260904042503 69 0 0.0 0.0 0.00 1.27 0.00 96 1015.3
20260904042331 69 0 0.0 0.0 0.00 1.27 0.00 95 1015.3
20260904042003 69 0 0.0 0.0 0.00 1.27 0.00 95 1015.2
20260904041831 69 0 0.0 0.0 0.00 1.27 0.00 95 1015.4
20260904041503 69 0 0.0 0.0 0.00 1.27 0.00 95 1015.2
20260904041331 69 0 0.0 0.0 0.00 1.27 0.00 95 1015.2
20260904041003 69 0 0.0 0.0 0.00 1.27 0.00 95 1015.2
20260904040831 70 0 0.0 0.0 0.00 1.27 0.00 95 1015.2
20260904040502 70 0 0.0 0.0 0.00 1.27 0.00 96 1015.2
20260904040331 70 0 0.0 0.0 0.00 1.27 0.00 96 1015.1
20260904040003 70 0 0.0 0.0 0.00 1.27 0.00 96 1015.0
20260904035831 70 0 0.0 0.0 0.00 1.28 1.27 96 1014.9
20260904035506 70 0 0.0 0.0 0.00 1.28 1.27 96 1014.9
20260904035330 70 0 0.0 0.0 0.00 1.28 1.27 96 1015.0
20260904035004 70 0 0.0 0.0 0.00 1.29 1.27 96 1014.9
20260904034830 70 0 0.0 0.0 0.00 1.30 1.27 96 1014.9
20260904034503 70 0 0.0 0.0 0.00 1.30 1.27 96 1014.6
20260904034330 70 0 0.0 0.0 0.00 1.31 1.27 96 1014.5
20260904034006 70 0 0.0 0.0 0.00 1.32 1.27 96 1014.5
20260904033830 70 0 0.0 0.0 0.00 1.32 1.27 95 1014.5
20260904033524 70 0 0.0 0.0 0.00 1.33 1.27 95 1014.6
20260904033330 70 0 0.0 0.0 0.00 1.34 1.27 95 1014.6
20260904033006 70 0 0.0 0.0 0.00 1.34 1.27 95 1014.6
20260904032830 70 0 0.0 0.0 0.00 1.36 1.27 95 1014.6
20260904032503 70 0 0.0 0.0 0.00 1.42 1.27 95 1014.4
20260904032330 70 0 0.0 0.0 0.00 1.45 1.27 96 1014.4
20260904032003 70 0 0.0 0.0 0.00 1.50 1.27 95 1014.5
20260904031830 70 0 0.0 0.0 0.00 1.53 1.27 96 1014.5
20260904031503 70 0 0.0 0.0 0.00 1.58 1.27 96 1014.4
20260904031330 70 0 0.0 0.0 0.00 1.59 1.27 96 1014.5
20260904031003 70 0 0.0 0.0 0.00 1.62 1.27 96 1014.5
20260904030830 70 0 0.0 0.0 0.00 1.65 1.27 96 1014.5
20260904030506 70 0 0.0 0.0 0.00 1.69 1.27 96 1014.5
20260904030330 70 0 0.0 0.0 0.00 1.70 1.27 95 1014.5
20260904030003 70 0 0.0 0.0 0.00 1.70 1.27 95 1014.4
20260904025830 70 0 0.0 0.0 0.00 1.70 1.27 95 1014.3
20260904025525 70 277 0.0 2.0 0.00 1.70 1.27 95 1014.3
20260904025330 70 277 0.0 2.0 0.00 1.70 1.27 95 1014.3
20260904025003 70 277 0.0 2.0 0.00 1.70 1.27 95 1014.3
20260904024830 70 277 0.0 2.0 0.00 1.70 1.27 95 1014.5
20260904024503 70 0 0.0 0.0 0.00 1.70 1.27 95 1014.4
20260904024329 70 0 0.0 0.0 0.00 1.70 1.27 95 1014.4
20260904024003 70 0 0.0 0.0 0.00 1.70 1.27 95 1014.3
20260904023829 70 0 0.0 0.0 0.00 1.70 1.27 95 1014.4
20260904023504 70 0 0.0 0.0 0.00 1.70 1.27 95 1014.3
20260904023329 70 0 0.0 0.0 0.00 1.70 1.27 95 1014.4
20260904023003 70 277 0.0 1.0 0.00 1.70 1.27 95 1014.4
20260904022829 70 277 0.0 1.0 0.00 1.70 1.27 95 1014.4
20260904022503 70 277 0.0 1.0 0.00 1.70 1.27 95 1014.4
20260904022329 70 277 0.0 1.0 0.00 1.70 1.27 95 1014.4
20260904022004 70 0 0.0 0.0 0.00 1.70 1.27 95 1014.5
20260904021829 70 0 0.0 0.0 0.00 1.70 1.27 95 1014.6
20260904021503 70 0 0.0 0.0 0.00 1.70 1.27 95 1014.5
20260904021329 70 0 0.0 0.0 0.00 1.70 1.27 95 1014.6
20260904021003 70 277 0.0 1.0 0.00 1.70 1.27 95 1014.5
20260904020829 70 277 0.0 1.0 0.00 1.70 1.27 95 1014.6
20260904020503 70 277 0.0 1.0 0.00 1.70 1.27 95 1014.5
20260904020329 70 277 0.0 1.0 0.00 1.70 1.27 95 1014.5
20260904020003 70 277 0.0 1.0 0.00 1.70 1.27 95 1014.6
20260904015829 70 277 0.0 1.0 0.00 1.70 1.27 95 1014.6
20260904015503 70 277 0.0 1.0 0.00 1.70 1.27 95 1014.6
20260904015329 70 277 0.0 1.0 0.00 1.70 1.27 95 1014.7
20260904015004 70 277 0.0 2.0 0.00 1.70 1.27 95 1014.7
20260904014828 70 277 0.0 2.0 0.00 1.70 1.27 95 1014.7
20260904014503 70 277 0.0 2.0 0.00 1.70 1.27 95 1014.5
20260904014328 70 277 0.0 3.0 0.00 1.70 1.27 95 1014.4
20260904014003 70 277 1.0 3.0 0.00 1.70 1.27 95 1014.4
20260904013828 70 277 1.0 3.0 0.00 1.70 1.27 95 1014.5
20260904013504 70 277 1.0 3.0 0.00 1.70 1.27 95 1014.6
20260904013328 70 277 0.0 3.0 0.00 1.70 1.27 95 1014.5
20260904013003 70 0 0.0 0.0 0.00 1.70 1.27 95 1014.4
20260904012828 70 0 0.0 0.0 0.00 1.70 1.27 95 1014.4
20260904012503 70 0 0.0 0.0 0.00 1.70 1.27 95 1014.3
20260904012328 71 0 0.0 0.0 0.00 1.70 1.27 95 1014.2
20260904012006 71 0 0.0 0.0 0.00 1.70 1.27 95 1014.2
20260904011828 71 0 0.0 0.0 0.00 1.70 1.27 95 1014.4
20260904011503 71 0 0.0 0.0 0.00 1.70 1.27 95 1014.4
20260904011328 71 0 0.0 0.0 0.00 1.70 1.27 95 1014.3
20260904011006 71 0 0.0 0.0 0.00 1.70 1.27 95 1014.2
20260904010828 71 0 0.0 0.0 0.00 1.70 1.27 95 1014.3
20260904010524 71 0 0.0 0.0 0.00 1.70 1.27 95 1014.2
20260904010328 71 277 0.0 2.0 0.00 1.70 1.27 95 1014.4
20260904010004 71 277 0.0 2.0 0.00 1.70 1.27 95 1014.3
20260904005828 71 277 1.0 3.0 0.00 1.70 1.27 95 1014.2
20260904005503 71 277 1.0 3.0 0.00 1.70 1.27 95 1014.3
20260904005328 71 277 1.0 3.0 0.00 1.70 1.27 95 1014.2
20260904005001 71 277 1.0 3.0 0.00 1.70 1.27 95 1014.3
20260904004758 71 276 1.0 3.0 0.00 1.70 1.27 95 1014.1
20260904004501 71 276 1.0 3.0 0.00 1.70 1.27 95 1014.0
20260904004258 71 277 2.0 8.0 0.00 1.70 1.27 95 1013.8
20260904004001 71 278 2.0 8.0 0.00 1.70 1.27 95 1013.7
20260904003758 71 280 2.0 8.0 0.00 1.70 1.27 95 1013.7
20260904003501 71 285 2.0 8.0 0.00 1.70 1.27 95 1013.7
20260904003257 71 306 1.0 5.0 0.00 1.70 1.27 95 1013.5
20260904003001 71 307 2.0 5.0 0.00 1.70 1.27 95 1013.5
20260904002757 71 311 2.0 6.0 0.00 1.70 1.27 95 1013.6
20260904002501 71 304 2.0 6.0 0.00 1.70 1.27 95 1013.6
20260904002257 71 294 2.0 6.0 0.00 1.70 1.27 95 1013.5
20260904002022 71 291 2.0 6.0 0.00 1.70 1.27 95 1013.6
20260904001757 71 224 1.0 4.0 0.00 1.70 1.27 95 1013.4
20260904001501 71 179 0.0 3.0 0.00 1.70 1.27 95 1013.2
20260904001257 71 179 1.0 3.0 0.00 1.70 1.27 95 1013.1
20260904001001 71 178 1.0 4.0 0.00 1.70 1.27 95 1013.1
20260904000757 71 177 2.0 6.0 0.00 1.70 1.27 95 1013.1
20260904000502 71 177 2.0 6.0 0.00 1.70 1.27 95 1013.1
20260904000257 71 176 2.0 6.0 0.00 1.70 1.27 95 1013.2
20260904000004 71 176 2.0 6.0 0.00 1.70 1.27 95 1013.2
20260903235757 71 175 2.0 6.0 0.00 1.70 1.27 94 1013.3
20260903235501 71 175 1.0 6.0 0.00 1.70 1.27 94 1013.3
20260903235257 71 174 1.0 6.0 0.00 1.70 1.27 94 1013.4
20260903235001 72 174 1.0 6.0 0.00 1.70 1.27 95 1013.3
20260903234757 72 173 1.0 3.0 0.00 1.70 1.27 95 1013.4
20260903234501 72 173 1.0 3.0 0.00 1.70 1.27 95 1013.4
20260903234257 72 171 1.0 5.0 0.00 1.70 1.27 95 1013.4
20260903234001 72 170 2.0 5.0 0.00 1.70 1.27 95 1013.5
20260903233757 72 167 2.0 5.0 0.00 1.70 1.27 95 1013.3
20260903233522 72 166 2.0 5.0 0.00 1.70 1.27 95 1013.3
20260903233257 72 165 2.0 6.0 0.00 1.70 1.27 95 1013.2
20260903233022 72 165 2.0 6.0 0.00 1.70 1.27 95 1013.2
20260903232757 72 164 1.0 6.0 0.00 1.70 1.27 95 1013.2
20260903232501 72 164 1.0 6.0 0.00 1.70 1.27 95 1013.2
20260903232256 72 164 1.0 4.0 0.00 1.70 1.27 95 1013.2
20260903232001 72 171 1.0 7.0 0.00 1.70 1.27 95 1013.2
20260903231756 72 175 1.0 7.0 0.00 1.70 1.27 95 1013.3
20260903231522 72 179 2.0 7.0 0.00 1.70 1.27 95 1013.2
20260903231256 72 189 1.0 7.0 0.00 1.70 1.27 95 1013.2
20260903231001 72 196 1.0 4.0 0.00 1.70 1.27 95 1013.1
20260903230756 72 201 1.0 4.0 0.00 1.70 1.27 95 1013.0
20260903230501 72 206 1.0 3.0 0.00 1.70 1.27 95 1013.1
20260903230256 72 215 1.0 3.0 0.00 1.70 1.27 95 1013.1
20260903230022 72 221 1.0 3.0 0.00 1.70 1.27 95 1013.0
20260903225756 72 236 1.0 3.0 0.00 1.70 1.27 95 1013.1
20260903225523 72 239 0.0 2.0 0.00 1.70 1.27 95 1013.3
20260903225256 72 239 0.0 1.0 0.00 1.70 1.27 95 1013.5
20260903225001 72 239 0.0 1.0 0.00 1.70 1.27 95 1013.6
20260903224756 72 239 0.0 2.0 0.00 1.70 1.27 95 1013.5
20260903224504 72 239 0.0 3.0 0.00 1.70 1.27 95 1013.5
20260903224256 72 239 1.0 3.0 0.00 1.70 1.27 95 1013.7
20260903224001 72 239 1.0 3.0 0.00 1.70 1.27 95 1013.9
20260903223756 72 239 1.0 3.0 0.00 1.70 1.27 95 1013.9
20260903223501 72 239 0.0 3.0 0.00 1.70 1.27 95 1013.9
20260903223256 72 239 0.0 3.0 0.00 1.70 1.27 95 1013.7
20260903223001 72 239 0.0 3.0 0.00 1.70 1.27 95 1013.8
20260903222756 72 239 0.0 3.0 0.00 1.70 1.27 95 1014.0
20260903222502 72 239 0.0 2.0 0.00 1.70 1.27 95 1013.9
20260903222256 71 233 1.0 4.0 0.00 1.70 1.27 95 1014.0
20260903222023 71 233 1.0 4.0 0.00 1.70 1.27 95 1014.0
20260903221756 71 229 1.0 4.0 0.00 1.70 1.27 95 1014.1
20260903221504 71 227 1.0 4.0 0.00 1.70 1.27 95 1014.1
20260903221256 71 190 0.0 2.0 0.00 1.70 1.27 95 1014.2
20260903221002 71 190 0.0 2.0 0.00 1.70 1.27 95 1014.3
20260903220756 71 190 0.0 2.0 0.00 1.70 1.27 95 1014.4
20260903220501 71 190 0.0 2.0 0.00 1.70 1.27 95 1014.5
20260903220255 71 0 0.0 0.0 0.00 1.70 1.27 94 1014.7
20260903215755 71 190 0.0 2.0 0.00 1.70 1.27 94 1014.7
20260903215502 71 190 0.0 2.0 0.00 1.70 1.27 94 1014.8
20260903215255 71 190 1.0 4.0 0.00 1.70 1.27 94 1015.0
20260903215001 71 190 1.0 4.0 0.00 1.70 1.27 94 1014.9
20260903214755 71 190 1.0 4.0 0.01 1.70 1.27 94 1014.8
20260903214501 71 191 1.0 4.0 0.01 1.70 1.27 94 1014.8
20260903214255 71 198 2.0 4.0 0.01 1.70 1.27 94 1014.9
20260903214002 71 210 1.0 4.0 0.01 1.70 1.27 94 1015.0
20260903213755 71 238 1.0 4.0 0.02 1.70 1.27 94 1015.0
20260903213502 71 270 1.0 3.0 0.02 1.70 1.27 94 1015.0
20260903213255 71 317 1.0 2.0 0.05 1.70 1.27 94 1014.9
20260903213022 71 318 1.0 2.0 0.07 1.70 1.27 94 1014.9
20260903212755 70 318 1.0 4.0 0.12 1.70 1.27 94 1014.8
20260903212501 71 318 2.0 4.0 0.25 1.70 1.27 94 1014.7
20260903212255 70 318 2.0 4.0 0.40 1.70 1.27 94 1014.8
20260903212002 70 318 2.0 4.0 0.53 1.70 1.27 94 1015.0
20260903211755 70 318 2.0 4.0 0.63 1.70 1.27 94 1014.9
20260903211522 70 319 1.0 4.0 0.64 1.70 1.27 93 1014.7
20260903211255 70 319 1.0 4.0 0.66 1.70 1.27 93 1014.7
20260903211001 70 320 2.0 5.0 0.66 1.70 1.27 93 1014.6
20260903210755 70 318 2.0 6.0 0.66 1.70 1.27 93 1014.6
20260903210505 70 318 2.0 6.0 0.66 1.70 1.27 93 1014.7
20260903210255 70 319 2.0 6.0 0.66 1.70 1.27 93 1014.9
20260903210002 70 315 2.0 6.0 0.66 1.70 1.27 93 1014.8
20260903205754 71 316 2.0 5.0 0.66 1.70 1.27 93 1014.6
20260903205522 71 322 2.0 5.0 0.66 1.70 1.27 93 1014.7
20260903205254 71 330 2.0 5.0 0.66 1.70 1.27 93 1014.9
20260903205025 71 348 2.0 5.0 0.66 1.70 1.27 93 1014.9
20260903204754 71 63 1.0 6.0 0.65 1.69 1.26 92 1014.2
20260903204502 71 63 1.0 6.0 0.65 1.69 1.26 92 1013.8
20260903204254 71 41 2.0 6.0 0.65 1.69 1.26 92 1013.9
20260903204001 71 25 2.0 6.0 0.65 1.69 1.26 92 1013.8
20260903203754 71 4 2.0 6.0 0.64 1.68 1.25 92 1014.3
20260903203501 71 339 4.0 15.0 0.63 1.67 1.24 91 1014.5
20260903203254 72 322 7.0 21.0 0.61 1.65 1.22 90 1015.2
20260903203009 72 319 8.0 21.0 0.59 1.63 1.20 90 1015.4
20260903202754 72 317 11.0 21.0 0.50 1.54 1.11 89 1016.1
20260903202502 72 319 11.0 21.0 0.41 1.45 1.02 89 1016.2
20260903202254 73 323 7.0 20.0 0.20 1.24 0.81 88 1016.0
20260903202002 73 328 6.0 20.0 0.08 1.12 0.69 87 1015.7
20260903201754 74 344 3.0 15.0 0.03 1.07 0.64 87 1014.3
20260903201502 74 354 3.0 11.0 0.02 1.06 0.63 87 1014.1
20260903201254 74 2 3.0 11.0 0.00 1.04 0.61 87 1014.1
20260903201002 74 4 3.0 11.0 0.00 1.04 0.61 87 1014.1
20260903200754 74 21 1.0 8.0 0.00 1.04 0.61 88 1013.9
20260903200523 74 29 1.0 8.0 0.00 1.04 0.61 88 1013.6
20260903200254 74 40 1.0 5.0 0.00 1.04 0.61 88 1013.2
20260903200001 74 46 1.0 5.0 0.00 1.04 0.61 88 1013.3
20260903195754 74 60 1.0 5.0 0.00 1.04 0.61 88 1013.3
20260903195523 74 87 1.0 5.0 0.00 1.04 0.61 88 1013.1
20260903195253 74 120 0.0 2.0 0.00 1.04 0.61 88 1012.5
20260903195002 74 120 0.0 2.0 0.00 1.04 0.61 88 1012.2
20260903194753 74 120 0.0 2.0 0.00 1.04 0.61 88 1012.2
20260903194505 75 120 0.0 2.0 0.00 1.04 0.61 88 1012.3
20260903194253 75 120 0.0 2.0 0.00 1.04 0.61 88 1012.5
20260903194001 75 120 1.0 2.0 0.00 1.04 0.61 88 1012.7
20260903193753 75 120 1.0 2.0 0.00 1.04 0.61 88 1012.9
20260903193502 75 120 1.0 2.0 0.00 1.04 0.61 88 1012.7
20260903193253 75 120 1.0 2.0 0.00 1.04 0.61 88 1012.8
20260903193002 75 120 0.0 2.0 0.00 1.04 0.61 88 1012.7
20260903192753 75 120 0.0 2.0 0.00 1.04 0.61 88 1012.7
20260903192501 75 120 0.0 3.0 0.00 1.04 0.61 88 1012.6
20260903192253 75 120 1.0 3.0 0.00 1.04 0.61 87 1012.7
20260903192026 75 120 1.0 3.0 0.00 1.04 0.61 87 1012.8
20260903191753 75 120 1.0 3.0 0.00 1.04 0.61 87 1013.0
20260903191502 75 120 1.0 3.0 0.00 1.04 0.61 87 1013.0
20260903191253 75 120 1.0 3.0 0.00 1.04 0.61 87 1013.1
20260903191002 75 120 1.0 3.0 0.00 1.04 0.61 87 1013.1
20260903190753 75 116 1.0 4.0 0.00 1.04 0.61 87 1013.2
20260903190502 75 114 1.0 4.0 0.00 1.04 0.61 86 1013.2
20260903190253 76 104 1.0 4.0 0.00 1.04 0.61 86 1013.2
20260903190002 76 102 1.0 4.0 0.00 1.04 0.61 86 1013.1
20260903185753 76 97 1.0 3.0 0.00 1.04 0.61 85 1013.1
20260903185502 76 97 2.0 3.0 0.00 1.04 0.61 85 1013.0
20260903185253 76 96 1.0 3.0 0.00 1.04 0.61 85 1013.1
20260903185022 76 96 1.0 3.0 0.00 1.04 0.61 85 1013.1
20260903184753 76 103 1.0 4.0 0.00 1.04 0.61 85 1013.1
20260903184509 76 115 1.0 4.0 0.00 1.04 0.61 85 1013.2
20260903184253 76 117 1.0 4.0 0.00 1.04 0.61 86 1013.3
20260903184002 76 114 1.0 4.0 0.00 1.04 0.61 85 1013.3
20260903183753 76 107 1.0 4.0 0.00 1.04 0.61 84 1013.3
20260903183502 77 91 1.0 3.0 0.00 1.04 0.61 85 1013.4
20260903183252 77 73 1.0 3.0 0.00 1.04 0.61 86 1013.6
20260903183004 77 68 1.0 3.0 0.00 1.04 0.61 87 1013.7
20260903182752 77 71 1.0 4.0 0.00 1.04 0.61 87 1013.5
20260903182502 76 69 1.0 7.0 0.00 1.04 0.61 87 1013.3
20260903182252 76 50 1.0 7.0 0.00 1.04 0.61 87 1013.3
20260903182001 76 46 1.0 7.0 0.00 1.04 0.61 88 1013.4
20260903181752 76 14 1.0 7.0 0.00 1.04 0.61 89 1013.2
20260903181502 76 338 1.0 5.0 0.03 1.04 0.61 92 1013.1
20260903181252 75 349 2.0 9.0 0.06 1.04 0.61 91 1013.0
20260903181002 75 344 2.0 9.0 0.06 1.04 0.61 91 1013.0
20260903180752 75 351 2.0 9.0 0.06 1.04 0.61 91 1013.1
20260903180523 75 351 2.0 9.0 0.06 1.04 0.61 92 1013.2
20260903180252 75 190 0.0 4.0 0.07 1.04 0.61 94 1013.0
20260903180002 75 190 0.0 2.0 0.12 1.04 0.61 95 1012.9
20260903175752 74 190 1.0 3.0 0.19 1.04 0.61 95 1012.8
20260903175501 74 190 1.0 3.0 0.20 1.04 0.61 95 1012.8
20260903175252 74 190 1.0 3.0 0.20 1.04 0.61 95 1012.9
20260903175002 74 190 1.0 4.0 0.20 1.04 0.61 96 1012.9
20260903174752 73 190 1.0 4.0 0.20 1.04 0.61 95 1012.8
20260903174526 72 190 1.0 4.0 0.20 1.04 0.61 95 1012.8
20260903174252 72 190 1.0 4.0 0.20 1.04 0.61 93 1012.9
20260903174023 72 190 1.0 3.0 0.21 1.04 0.61 94 1012.9
20260903173752 72 190 1.0 3.0 0.21 1.04 0.61 94 1012.9
20260903173501 72 190 1.0 4.0 0.22 1.04 0.61 94 1012.9
20260903173252 71 190 1.0 4.0 0.22 1.04 0.61 94 1012.9
20260903173002 71 190 1.0 4.0 0.22 1.04 0.61 93 1012.9
20260903172752 71 190 1.0 4.0 0.22 1.04 0.61 93 1013.0
20260903172501 71 190 1.0 4.0 0.22 1.04 0.61 93 1013.1
20260903172251 70 190 1.0 3.0 0.22 1.04 0.61 93 1013.0
20260903172001 70 190 1.0 3.0 0.22 1.04 0.61 92 1013.1
20260903171751 70 190 1.0 3.0 0.22 1.04 0.61 92 1013.2
20260903171502 70 190 1.0 3.0 0.19 1.01 0.58 92 1013.5
20260903171251 70 194 2.0 3.0 0.16 0.98 0.55 91 1013.0
20260903171023 70 219 2.0 9.0 0.16 0.98 0.55 91 1013.3
20260903170751 70 265 3.0 9.0 0.16 0.98 0.55 91 1013.4
20260903170502 70 280 3.0 9.0 0.17 0.98 0.55 90 1013.6
20260903170251 70 296 2.0 9.0 0.14 0.95 0.52 90 1014.1
20260903170002 70 300 2.0 8.0 0.10 0.90 0.47 90 1014.3
20260903165751 70 312 1.0 5.0 0.07 0.85 0.42 90 1014.1
20260903165523 70 317 1.0 3.0 0.08 0.84 0.41 90 1013.9
20260903165251 70 309 1.0 4.0 0.16 0.84 0.41 90 1013.7
20260903165005 70 306 1.0 4.0 0.16 0.84 0.41 89 1013.9
20260903164751 70 294 2.0 4.0 0.16 0.84 0.41 89 1014.0
20260903164501 71 283 2.0 4.0 0.16 0.84 0.41 89 1014.3
20260903164251 71 265 2.0 6.0 0.16 0.84 0.41 90 1014.4
20260903164002 71 264 3.0 7.0 0.15 0.83 0.40 90 1014.6
20260903163751 71 266 4.0 8.0 0.15 0.83 0.40 90 1014.9
20260903163502 71 275 4.0 8.0 0.14 0.82 0.39 90 1014.8
20260903163251 71 290 4.0 8.0 0.14 0.82 0.39 90 1014.7
20260903163001 71 306 4.0 10.0 0.14 0.82 0.39 89 1014.4
20260903162751 71 317 5.0 12.0 0.14 0.82 0.39 89 1014.3
20260903162502 71 314 5.0 12.0 0.14 0.82 0.39 89 1014.3
20260903162251 71 304 6.0 12.0 0.14 0.82 0.39 89 1014.5
20260903162023 71 298 6.0 12.0 0.14 0.82 0.39 89 1014.7
20260903161750 72 293 6.0 11.0 0.14 0.82 0.39 89 1014.9
20260903161502 72 298 7.0 14.0 0.14 0.82 0.39 89 1014.9
20260903161250 72 310 9.0 18.0 0.14 0.82 0.39 89 1014.8
20260903161002 72 310 9.0 18.0 0.14 0.82 0.39 88 1014.9
20260903160750 72 312 13.0 28.0 0.14 0.82 0.39 87 1015.0
20260903160502 73 310 14.0 28.0 0.13 0.81 0.39 87 1015.4
20260903160250 74 300 13.0 35.0 0.13 0.81 0.38 86 1015.8
20260903160002 74 299 13.0 35.0 0.12 0.80 0.37 86 1015.8
20260903155750 76 291 7.0 35.0 0.10 0.78 0.35 87 1016.4
20260903155502 76 280 5.0 35.0 0.08 0.76 0.33 89 1016.5
20260903155250 76 265 0.0 8.0 0.00 0.68 0.25 90 1015.7
20260903155002 76 107 0.0 2.0 0.00 0.68 0.25 90 1015.3
20260903154750 76 107 0.0 2.0 0.00 0.68 0.25 90 1015.2
20260903154502 76 106 0.0 1.0 0.00 0.68 0.25 90 1015.1
20260903154250 76 106 0.0 2.0 0.00 0.68 0.25 90 1014.9
20260903154005 76 106 0.0 3.0 0.00 0.68 0.25 90 1015.0
20260903153750 77 106 0.0 3.0 0.00 0.68 0.25 90 1015.0
20260903153502 77 106 0.0 3.0 0.00 0.68 0.25 90 1015.0
20260903153250 77 106 0.0 3.0 0.00 0.68 0.25 90 1014.8
20260903153002 77 0 0.0 0.0 0.00 0.68 0.25 90 1014.5
20260903152750 77 0 0.0 0.0 0.00 0.68 0.25 90 1014.4
20260903152523 77 0 0.0 0.0 0.00 0.68 0.25 90 1014.3
20260903152250 77 0 0.0 0.0 0.00 0.68 0.25 90 1014.2
20260903152002 77 0 0.0 0.0 0.00 0.68 0.25 90 1014.2
20260903151750 77 0 0.0 0.0 0.00 0.68 0.25 90 1014.3
20260903151505 77 106 0.0 1.0 0.00 0.68 0.25 90 1014.2
20260903151250 77 106 0.0 1.0 0.00 0.68 0.25 90 1013.9
20260903151005 77 106 0.0 1.0 0.00 0.68 0.25 90 1013.7
20260903150750 77 106 0.0 1.0 0.00 0.68 0.25 90 1013.5
20260903150501 77 106 0.0 1.0 0.00 0.68 0.25 89 1013.5
20260903150250 77 106 0.0 1.0 0.00 0.68 0.25 89 1013.7
20260903150002 77 106 0.0 1.0 0.00 0.68 0.25 89 1013.7
20260903145749 77 106 0.0 2.0 0.00 0.68 0.25 89 1013.8
20260903145502 77 106 0.0 3.0 0.00 0.68 0.25 89 1013.7
20260903145249 77 106 1.0 3.0 0.00 0.68 0.25 89 1013.6
20260903145002 77 106 1.0 3.0 0.00 0.68 0.25 89 1013.7
20260903144749 77 106 1.0 3.0 0.00 0.68 0.25 89 1013.7
20260903144502 77 106 1.0 3.0 0.00 0.68 0.25 89 1013.8
20260903144249 77 106 2.0 3.0 0.00 0.68 0.25 89 1013.8
20260903144002 77 106 2.0 3.0 0.00 0.68 0.25 89 1013.9
20260903143749 77 106 2.0 3.0 0.00 0.68 0.25 89 1013.9
20260903143505 77 106 2.0 3.0 0.00 0.68 0.25 89 1014.0
20260903143249 77 106 2.0 4.0 0.00 0.68 0.25 88 1013.9
20260903143002 77 106 2.0 4.0 0.00 0.68 0.25 88 1013.8
20260903142749 78 106 2.0 4.0 0.00 0.68 0.25 88 1013.7
20260903142526 78 106 2.0 4.0 0.00 0.68 0.25 88 1013.7
20260903142249 78 106 2.0 4.0 0.00 0.68 0.25 88 1013.7
20260903142002 78 106 1.0 4.0 0.00 0.68 0.25 88 1013.7
20260903141749 78 106 1.0 3.0 0.00 0.68 0.25 88 1013.6
20260903141503 78 105 2.0 4.0 0.00 0.68 0.25 88 1013.6
20260903141249 78 105 2.0 4.0 0.00 0.68 0.25 89 1013.6
20260903141002 78 105 2.0 4.0 0.00 0.68 0.25 88 1013.5
20260903140748 78 104 2.0 4.0 0.00 0.68 0.25 88 1013.5
20260903140502 78 99 2.0 4.0 0.00 0.68 0.25 87 1013.6
20260903140248 78 85 2.0 4.0 0.00 0.68 0.25 87 1013.6
20260903140002 78 56 2.0 4.0 0.00 0.68 0.25 87 1013.6
20260903135748 79 337 1.0 4.0 0.00 0.68 0.25 87 1013.8
20260903135502 79 304 1.0 3.0 0.00 0.68 0.25 87 1013.9
20260903135248 79 293 1.0 3.0 0.00 0.68 0.25 87 1013.7
20260903135002 79 287 1.0 3.0 0.00 0.68 0.25 87 1013.7
20260903134748 78 287 1.0 3.0 0.00 0.68 0.25 88 1013.7
20260903134502 78 287 1.0 3.0 0.00 0.68 0.25 87 1013.9
20260903134248 78 287 1.0 4.0 0.00 0.68 0.25 88 1013.8
20260903134002 78 287 1.0 4.0 0.00 0.68 0.25 89 1013.8
20260903133748 78 287 1.0 4.0 0.00 0.68 0.25 89 1013.8
20260903133502 78 288 2.0 4.0 0.00 0.68 0.25 89 1013.8
20260903133248 77 285 2.0 3.0 0.00 0.68 0.25 90 1013.9
20260903133023 77 284 2.0 3.0 0.00 0.68 0.25 90 1013.9
20260903132748 77 282 1.0 3.0 0.00 0.68 0.25 90 1013.8
20260903132502 77 278 1.0 3.0 0.00 0.68 0.25 90 1013.9
20260903132248 77 276 1.0 3.0 0.00 0.68 0.25 91 1013.8
20260903132023 77 276 1.0 3.0 0.00 0.68 0.25 91 1013.8
20260903131748 76 276 1.0 4.0 0.00 0.68 0.25 91 1013.7
20260903131523 76 276 1.0 4.0 0.00 0.68 0.25 92 1013.7
20260903131248 76 275 2.0 4.0 0.00 0.68 0.25 92 1013.7
20260903131024 76 275 2.0 4.0 0.00 0.68 0.25 92 1013.8
20260903130748 76 273 2.0 4.0 0.00 0.68 0.25 92 1013.8
20260903130502 76 272 2.0 4.0 0.00 0.68 0.25 92 1013.7
20260903130248 76 271 2.0 4.0 0.00 0.68 0.25 93 1013.7
20260903125748 76 272 1.0 4.0 0.00 0.68 0.25 93 1013.9
20260903125503 76 273 1.0 4.0 0.00 0.68 0.25 93 1013.8
20260903125247 75 267 1.0 6.0 0.00 0.68 0.25 93 1013.9
20260903125002 75 266 1.0 6.0 0.00 0.68 0.25 94 1014.0
20260903124747 75 264 1.0 6.0 0.00 0.68 0.25 94 1014.0
20260903124502 75 264 2.0 6.0 0.00 0.68 0.25 94 1014.0
20260903124247 74 265 2.0 6.0 0.00 0.68 0.25 94 1014.1
20260903124003 74 265 2.0 6.0 0.00 0.68 0.25 94 1014.1
20260903123747 74 265 2.0 6.0 0.00 0.68 0.25 94 1014.1
20260903123502 74 265 2.0 6.0 0.00 0.68 0.25 94 1014.1
20260903123247 74 266 2.0 4.0 0.00 0.68 0.25 95 1014.3
20260903123002 74 266 2.0 4.0 0.00 0.68 0.25 95 1014.2
20260903122747 73 266 1.0 4.0 0.00 0.68 0.25 95 1014.4
20260903122506 73 266 1.0 4.0 0.00 0.68 0.25 95 1014.3
20260903122247 73 266 1.0 3.0 0.00 0.68 0.25 95 1014.3
20260903122002 73 266 1.0 3.0 0.00 0.68 0.25 95 1014.3
20260903121747 72 266 1.0 3.0 0.00 0.68 0.25 95 1014.2
20260903121505 72 266 2.0 4.0 0.00 0.68 0.25 95 1014.3
20260903121247 72 266 2.0 4.0 0.00 0.68 0.25 94 1014.2
20260903121002 72 266 2.0 4.0 0.00 0.68 0.25 94 1014.2
20260903120747 72 266 1.0 4.0 0.00 0.68 0.25 94 1014.2
20260903120503 72 266 1.0 4.0 0.00 0.68 0.25 94 1014.2
20260903120247 72 266 1.0 4.0 0.00 0.68 0.25 95 1014.2
20260903120002 72 266 1.0 4.0 0.00 0.68 0.25 94 1014.1
20260903115747 72 266 0.0 2.0 0.00 0.68 0.25 94 1014.2
20260903115524 71 266 0.0 2.0 0.00 0.68 0.25 94 1014.0
20260903115247 71 266 0.0 2.0 0.00 0.68 0.25 94 1014.0
20260903115003 71 266 0.0 2.0 0.00 0.68 0.25 94 1014.1
20260903114746 71 266 0.0 2.0 0.00 0.68 0.25 94 1014.0
20260903114502 71 266 0.0 2.0 0.00 0.68 0.25 94 1013.9
20260903114246 71 266 0.0 1.0 0.00 0.68 0.25 94 1013.9
20260903114002 71 0 0.0 0.0 0.00 0.68 0.25 94 1013.9
20260903113746 71 0 0.0 0.0 0.00 0.68 0.25 94 1013.9
20260903113524 71 0 0.0 0.0 0.00 0.68 0.25 94 1014.0
20260903113246 71 0 0.0 0.0 0.00 0.68 0.25 94 1013.9
20260903113002 71 0 0.0 0.0 0.00 0.68 0.25 94 1013.9
20260903112746 71 0 0.0 0.0 0.00 0.68 0.25 94 1013.9
20260903112502 71 266 0.0 1.0 0.00 0.68 0.25 94 1013.8
20260903112246 71 266 0.0 3.0 0.00 0.68 0.25 94 1013.7
20260903112024 71 266 1.0 3.0 0.00 0.68 0.25 94 1013.7
20260903111746 71 266 1.0 3.0 0.00 0.68 0.25 94 1013.7
20260903111503 71 266 1.0 3.0 0.00 0.68 0.25 94 1013.8
20260903111246 71 265 1.0 3.0 0.00 0.68 0.25 94 1013.7
20260903111002 71 265 1.0 3.0 0.00 0.68 0.25 94 1013.6
20260903110746 71 265 1.0 3.0 0.00 0.68 0.25 94 1013.7
20260903110527 71 265 1.0 3.0 0.00 0.68 0.25 93 1013.6
20260903110246 71 265 0.0 3.0 0.00 0.68 0.25 93 1013.6